FW0663 Weather Reports


Display with metric or nautical units.
time (UTC)temp
F
wind
direction
speed
MPH
gust
MPH
rain 1hr
in
rain 24hr
in
rain mn
in
humidity
%
barometer
mb
20260507101512 44 123 1.0 3.0 0.00 0.00 0.00 81 1017.6
20260507100002 44 116 1.0 3.0 0.00 0.00 0.00 80 1017.5
20260507094559 45 111 0.0 2.0 0.00 0.00 0.00 81 1017.6
20260507093100 44 111 0.0 3.0 0.00 0.00 0.00 80 1017.6
20260507091556 45 113 1.0 3.0 0.00 0.00 0.00 80 1017.6
20260507090106 45 117 1.0 3.0 0.00 0.00 0.00 78 1017.8
20260507084553 45 88 1.0 3.0 0.00 0.00 0.00 77 1017.8
20260507083050 45 110 1.0 3.0 0.00 0.00 0.00 77 1017.7
20260507081548 45 100 1.0 3.0 0.00 0.00 0.00 77 1017.8
20260507080048 46 87 0.0 3.0 0.00 0.00 0.00 77 1017.8
20260507074552 46 71 1.0 3.0 0.00 0.00 0.00 76 1018.0
20260507073042 47 92 0.0 2.0 0.00 0.00 0.00 76 1017.8
20260507071539 48 94 0.0 2.0 0.00 0.00 0.00 74 1017.8
20260507070038 48 86 0.0 0.0 0.00 0.00 0.00 74 1017.8
20260507064540 49 84 0.0 2.0 0.00 0.00 0.00 71 1017.7
20260507063037 51 86 0.0 2.0 0.00 0.00 0.00 68 1017.7
20260507061536 53 90 0.0 0.0 0.00 0.00 0.00 66 1017.7
20260507060037 56 304 0.0 0.0 0.00 0.00 0.00 58 1017.8
20260507054539 57 284 0.0 2.0 0.00 0.00 0.00 57 1017.8
20260507053035 59 286 0.0 2.0 0.00 0.00 0.00 54 1017.9
20260507051535 58 302 0.0 3.0 0.00 0.00 0.00 55 1017.8
20260507050039 59 165 0.0 2.0 0.00 0.00 0.00 55 1017.8
20260507044534 60 258 0.0 0.0 0.00 0.00 0.00 54 1017.8
20260507043033 61 258 0.0 2.0 0.00 0.00 0.00 51 1017.7
20260507041547 62 311 0.0 2.0 0.00 0.00 0.00 50 1017.6
20260507040032 63 257 0.0 2.0 0.00 0.00 0.00 48 1017.5
20260507034531 65 278 0.0 2.0 0.00 0.00 0.00 46 1017.3
20260507033034 66 258 0.0 2.0 0.00 0.00 0.00 43 1017.0
20260507031531 68 327 1.0 6.0 0.00 0.00 0.00 40 1017.0
20260507030031 69 333 3.0 10.0 0.00 0.00 0.00 38 1016.8
20260507024530 70 346 4.0 8.0 0.00 0.00 0.00 37 1016.7
20260507023031 71 9 3.0 8.0 0.00 0.00 0.00 36 1016.5
20260507021530 72 336 5.0 10.0 0.00 0.00 0.00 33 1016.3
20260507020030 73 360 2.0 9.0 0.00 0.00 0.00 33 1016.2
20260507014546 73 355 5.0 11.0 0.00 0.00 0.00 32 1016.1
20260507013041 74 333 4.0 10.0 0.00 0.00 0.00 31 1016.0
20260507011536 75 324 6.0 12.0 0.00 0.00 0.00 30 1015.9
20260507010032 75 312 4.0 13.0 0.00 0.00 0.00 32 1016.0
20260507004526 75 28 8.0 13.0 0.00 0.00 0.00 31 1015.8
20260507003026 75 309 6.0 13.0 0.00 0.00 0.00 31 1015.6
20260507001525 76 5 6.0 12.0 0.00 0.00 0.00 31 1015.5
20260507000029 76 336 7.0 14.0 0.00 0.00 0.00 32 1015.4
20260506234524 78 312 9.0 17.0 0.00 0.00 0.00 29 1015.1
20260506233024 79 302 6.0 15.0 0.00 0.00 0.00 29 1014.9
20260506231523 80 13 5.0 13.0 0.00 0.00 0.00 26 1014.8
20260506230023 80 327 4.0 17.0 0.00 0.00 0.00 27 1014.9
20260506224522 80 9 3.0 11.0 0.00 0.00 0.00 24 1014.8
20260506223019 80 344 5.0 10.0 0.00 0.00 0.00 25 1015.0
20260506221520 80 330 1.0 8.0 0.00 0.00 0.00 24 1015.2
20260506220019 80 263 2.0 10.0 0.00 0.00 0.00 23 1015.3
20260506214517 80 333 6.0 9.0 0.00 0.00 0.00 22 1015.3
20260506213016 79 327 3.0 11.0 0.00 0.00 0.00 26 1015.5
20260506211515 79 315 4.0 10.0 0.00 0.00 0.00 26 1015.7
20260506210015 79 351 3.0 8.0 0.00 0.00 0.00 24 1016.0
20260506204517 79 317 6.0 13.0 0.00 0.00 0.00 24 1016.1
20260506203010 77 106 3.0 8.0 0.00 0.00 0.00 29 1016.2
20260506201510 77 344 4.0 7.0 0.00 0.00 0.00 29 1016.2
20260506200006 76 239 2.0 10.0 0.00 0.00 0.00 28 1016.4
20260506194508 76 278 4.0 9.0 0.00 0.00 0.00 27 1016.7
20260506193004 75 309 1.0 9.0 0.00 0.00 0.00 30 1016.9
20260506191502 75 290 2.0 7.0 0.00 0.00 0.00 30 1017.0
20260506190100 74 215 3.0 8.0 0.00 0.00 0.00 29 1017.3
20260506184558 73 270 2.0 11.0 0.00 0.00 0.00 33 1017.4
20260506183059 73 355 4.0 9.0 0.00 0.00 0.00 31 1017.4
20260506181557 73 338 4.0 8.0 0.00 0.00 0.00 32 1017.3
20260506180104 73 329 2.0 6.0 0.00 0.00 0.00 33 1017.4
20260506174551 72 153 0.0 4.0 0.00 0.00 0.00 37 1017.5
20260506173109 71 279 1.0 6.0 0.00 0.00 0.00 38 1017.6
20260506171552 70 341 0.0 4.0 0.00 0.00 0.00 40 1017.7
20260506170044 68 281 1.0 3.0 0.00 0.00 0.00 44 1017.8
20260506164543 66 65 0.0 3.0 0.00 0.00 0.00 48 1018.1
20260506163046 64 325 0.0 5.0 0.00 0.00 0.00 51 1018.3
20260506161547 62 109 0.0 2.0 0.00 0.00 0.00 53 1018.3
20260506160031 60 57 1.0 4.0 0.00 0.00 0.00 54 1018.4
20260506154529 59 83 0.0 3.0 0.00 0.00 0.00 54 1018.5
20260506153025 58 98 1.0 2.0 0.00 0.00 0.00 55 1018.6
20260506151521 56 118 1.0 2.0 0.00 0.00 0.00 58 1018.7
20260506150023 55 69 0.0 4.0 0.00 0.00 0.00 62 1018.5
20260506144514 54 102 2.0 5.0 0.00 0.00 0.00 65 1018.3
20260506143010 52 25 0.0 3.0 0.00 0.00 0.00 67 1018.3
20260506141509 50 111 1.0 3.0 0.00 0.00 0.00 72 1018.1
20260506140005 49 73 1.0 3.0 0.00 0.00 0.00 73 1017.9
20260506134512 47 92 1.0 3.0 0.00 0.00 0.00 75 1017.7
20260506133002 45 49 0.0 2.0 0.00 0.00 0.00 78 1017.6
20260506131503 44 169 0.0 2.0 0.00 0.00 0.00 79 1017.6
20260506130059 44 73 0.0 4.0 0.00 0.00 0.00 79 1017.5
20260506124603 44 96 1.0 3.0 0.00 0.00 0.00 79 1017.4
20260506123057 44 86 0.0 2.0 0.00 0.00 0.00 79 1017.4
20260506121605 44 110 1.0 3.0 0.00 0.00 0.00 78 1017.4
20260506120053 45 146 0.0 2.0 0.00 0.00 0.00 75 1017.3
20260506114553 46 105 1.0 5.0 0.00 0.00 0.00 76 1017.2
20260506113049 45 88 1.0 4.0 0.00 0.00 0.00 78 1016.9
20260506111559 46 111 1.0 5.0 0.00 0.00 0.00 73 1016.8
20260506110045 46 82 1.0 3.0 0.00 0.00 0.00 76 1016.7
20260506104542 46 99 0.0 2.0 0.00 0.00 0.00 75 1016.6
20260506103039 47 130 1.0 2.0 0.00 0.00 0.00 73 1016.5